(503680) = 2009 WB173 = 2013 SF43 = 2016 HH8

Discovered at Mount Lemmon on 2009-09-28 by Mt. Lemmon Survey.

Orbit

Orbit type: Main Belt

Note: WebGL enabled browser required.

epoch2024-03-31.0
epoch JD2460400.5
perihelion date2022-05-08.81445
perihelion JD2459708.31445
argument of perihelion (°)235.20000
ascending node (°)114.07902
inclination (°)7.26503
eccentricity0.0558358
perihelion distance (AU)2.5392335
Tisserand w.r.t. Jupiter3.4
ΔV w.r.t. Earth (km/sec)10.2
semimajor axis (AU)2.6893982
mean anomaly (°)154.68340
mean daily motion (°/day)0.22347100
aphelion distance (AU)2.840
period (years)4.41
P-vector [x]0.97652604
P-vector [y]-0.13183774
P-vector [z]-0.17033998
Q-vector [x]0.18184336
Q-vector [y]0.92846043
Q-vector [z]0.32387378
absolute magnitude17.14
phase slope0.15
uncertainty0
referenceMPEC 2024-E179
observations used187
oppositions12
arc length (days)11367
first opposition used1993
last opposition used2024
residual rms (arc-secs)0.62
perturbers coarse indicatorM-v
perturbers precise indicator003Ek
first observation date used1993-01-26.0
last observation date used2024-03-11.0
computer nameMPCLINUX
JD of orbit computation2458012.326376
perihelion JD uncertainty (days)1.3900E-04
argument of perihelion uncertainty (°)4.3941E-05
ascending node uncertainty (°)2.9664E-05
inclination uncertainty (°)3.7857E-06
eccentricity uncertainty 5.1899E-08
perihelion distance uncertainty (AU)1.4954E-07
Minimum Orbit Intersection Distances (in AU)
for orbit epoch: 2460200.5, reference: E2024-CE5
Mercury2.14056
Venus1.81234
Earth1.53817
Mars1.14517
Jupiter2.40875
Saturn6.32048
Uranus15.6191
Neptune27.2642

Observations

193 total observations over interval: 1993 01 26.24445 – 2024 03 11.251910
These data are available for download (format description).

Date (UT) J2000 RA J2000 Dec Magn Location Ref
1993 01 26.24445 08 31 49.26 +21 05 59.9 21.3 V 691 – Steward Observatory, Kitt Peak-Spacewatch MPS 708404
1993 01 26.27891 08 31 47.31 +21 06 12.0   691 – Steward Observatory, Kitt Peak-Spacewatch MPS 708404
1993 01 26.31316 08 31 45.27 +21 06 23.7   691 – Steward Observatory, Kitt Peak-Spacewatch MPS 708404
2009 09 28.43004 04 22 56.67 +12 29 50.1 20.5 V G96 – Mt. Lemmon Survey MPS 708404
2009 09 28.43749 04 22 56.74 +12 29 49.4 21.1 V G96 – Mt. Lemmon Survey MPS 708404
2009 09 28.44492 04 22 56.78 +12 29 48.5 20.7 V G96 – Mt. Lemmon Survey MPS 708404
2009 09 28.45249 04 22 56.85 +12 29 47.9 21.8 V G96 – Mt. Lemmon Survey MPS 708404
2009 11 22.34421 03 54 47.16 +10 35 06.7 20.2 V G96 – Mt. Lemmon Survey MPS 305433
2009 11 22.35009 03 54 46.83 +10 35 06.0 20.3 V G96 – Mt. Lemmon Survey MPS 305433
2009 11 22.35591 03 54 46.44 +10 35 06.3 20.9 V G96 – Mt. Lemmon Survey MPS 305433
2009 11 22.36168 03 54 46.11 +10 35 06.1 20.6 V G96 – Mt. Lemmon Survey MPS 305433
2009 11 25.31123 03 51 57.78 +10 32 11.7 20.2 V G96 – Mt. Lemmon Survey MPS 305433
2009 11 25.31643 03 51 57.49 +10 32 11.7 20.6 V G96 – Mt. Lemmon Survey MPS 305433
2009 11 25.32187 03 51 57.16 +10 32 11.4 20.6 V G96 – Mt. Lemmon Survey MPS 305433
2009 11 25.32715 03 51 56.88 +10 32 10.7 20.3 V G96 – Mt. Lemmon Survey MPS 305433
2011 03 09.24074 10 38 46.86 +17 03 25.0 21.1 V G96 – Mt. Lemmon Survey MPS 708404
2011 03 09.25008 10 38 46.42 +17 03 28.2 21.3 V G96 – Mt. Lemmon Survey MPS 708404
2011 03 09.25936 10 38 45.92 +17 03 31.6 21.2 V G96 – Mt. Lemmon Survey MPS 708404
2011 03 09.26861 10 38 45.45 +17 03 34.7 21.3 V G96 – Mt. Lemmon Survey MPS 708404
2012 06 23.29840 16 36 21.78 -15 14 44.5 20.6 V G96 – Mt. Lemmon Survey MPS 708404
2012 06 23.30524 16 36 21.45 -15 14 45.3 20.5 V G96 – Mt. Lemmon Survey MPS 708404
2012 06 23.31211 16 36 21.13 -15 14 46.0 21.6 V G96 – Mt. Lemmon Survey MPS 708404
2012 06 23.31904 16 36 20.80 -15 14 46.5 20.1 V G96 – Mt. Lemmon Survey MPS 708404
2013 09 27.46271 01 01 26.469 -05 53 26.74 20.4 r F51 – Pan-STARRS 1, Haleakala MPS 480345
2013 09 27.47365 01 01 25.925 -05 53 30.81 20.3 r F51 – Pan-STARRS 1, Haleakala MPS 480345
2013 09 27.48590 01 01 25.322 -05 53 35.58 20.3 i F51 – Pan-STARRS 1, Haleakala MPS 480345
2013 09 27.49789 01 01 24.744 -05 53 40.28 20.1 i F51 – Pan-STARRS 1, Haleakala MPS 480345
2013 10 04.40897 00 55 50.30 -06 36 09.2 20.1 V G96 – Mt. Lemmon Survey MPS 480345
2013 10 04.41116 00 55 50.19 -06 36 09.9 20.2 V G96 – Mt. Lemmon Survey MPS 480345
2013 10 04.41333 00 55 50.08 -06 36 10.4 20.2 V G96 – Mt. Lemmon Survey MPS 480345
2013 10 04.41554 00 55 49.97 -06 36 11.4 20.1 V G96 – Mt. Lemmon Survey MPS 480345
2015 02 10.27534 07 46 09.59 +22 58 34.4 20.9 V G96 – Mt. Lemmon Survey MPS 708404
2015 02 10.28297 07 46 09.22 +22 58 36.0 21.0 V G96 – Mt. Lemmon Survey MPS 708404
2015 02 10.29061 07 46 08.89 +22 58 37.7 21.0 V G96 – Mt. Lemmon Survey MPS 708404
2015 02 10.29825 07 46 08.55 +22 58 39.6 20.5 V G96 – Mt. Lemmon Survey MPS 708404
2015 02 22.24417 07 39 14.134 +23 37 07.01 21.3 w F51 – Pan-STARRS 1, Haleakala MPS 708404
2015 02 22.25732 07 39 13.783 +23 37 09.39 21.4 w F51 – Pan-STARRS 1, Haleakala MPS 708404
2015 02 22.27064 07 39 13.425 +23 37 11.46 21.6 w F51 – Pan-STARRS 1, Haleakala MPS 708404
2015 02 22.28396 07 39 13.064 +23 37 14.01 21.6 w F51 – Pan-STARRS 1, Haleakala MPS 708404
2016 03 31.46883 14 31 17.215 -03 27 16.04 21.2 r F51 – Pan-STARRS 1, Haleakala MPS 706164
2016 03 31.48113 14 31 16.766 -03 27 12.00 21.0 r F51 – Pan-STARRS 1, Haleakala MPS 706164
2016 03 31.49345 14 31 16.292 -03 27 08.48 21.3 r F51 – Pan-STARRS 1, Haleakala MPS 706164
2016 04 04.47550 14 28 47.591 -03 06 47.55 21.1 w F51 – Pan-STARRS 1, Haleakala MPS 706164
2016 04 04.49929 14 28 46.604 -03 06 40.01 21.1 w F51 – Pan-STARRS 1, Haleakala MPS 706164
2016 04 04.51125 14 28 46.104 -03 06 36.46 21.4 w F51 – Pan-STARRS 1, Haleakala MPS 706164
2016 04 29.27034 14 09 03.58 -01 12 23.8   691 – Steward Observatory, Kitt Peak-Spacewatch MPS 706164
2016 04 29.28139 14 09 02.97 -01 12 21.2   691 – Steward Observatory, Kitt Peak-Spacewatch MPS 706164
2016 04 29.29247 14 09 02.42 -01 12 18.7   691 – Steward Observatory, Kitt Peak-Spacewatch MPS 706164
2016 05 01.42093 14 07 15.450 -01 05 02.21 21.0 w F51 – Pan-STARRS 1, Haleakala MPS 706164
2016 05 01.43364 14 07 14.797 -01 04 59.85 21.1 w F51 – Pan-STARRS 1, Haleakala MPS 706164
2016 05 01.44633 14 07 14.147 -01 04 57.24 21.1 w F51 – Pan-STARRS 1, Haleakala MPS 706164
2016 05 01.45906 14 07 13.484 -01 04 54.80 21.0 w F51 – Pan-STARRS 1, Haleakala MPS 706164
2016 05 02.41326 14 06 25.86 -01 01 52.6 21.3 V 691 – Steward Observatory, Kitt Peak-Spacewatch MPS 706164
2016 05 02.42484 14 06 25.22 -01 01 49.8 21.9 V 691 – Steward Observatory, Kitt Peak-Spacewatch MPS 706164
2016 05 02.44118 14 06 24.50 -01 01 46.4 21.4 V 691 – Steward Observatory, Kitt Peak-Spacewatch MPS 706164
2017 07 04.55110 21 56 03.576 -15 43 49.18 21.3 w F51 – Pan-STARRS 1, Haleakala MPS 803675
2017 07 04.56270 21 56 03.454 -15 43 52.16 21.2 w F51 – Pan-STARRS 1, Haleakala MPS 803675
2017 07 04.57432 21 56 03.333 -15 43 55.35 21.2 w F51 – Pan-STARRS 1, Haleakala MPS 803675
2017 07 04.58593 21 56 03.214 -15 43 58.58 21.2 w F51 – Pan-STARRS 1, Haleakala MPS 803675
2017 07 25.46621 21 47 41.306 -17 46 33.06 20.7 w F51 – Pan-STARRS 1, Haleakala MPS 806683
2017 07 25.47642 21 47 40.888 -17 46 37.29 20.8 w F51 – Pan-STARRS 1, Haleakala MPS 806683
2017 07 25.48664 21 47 40.482 -17 46 41.57 20.6 w F51 – Pan-STARRS 1, Haleakala MPS 806683
2017 07 25.49686 21 47 40.062 -17 46 45.73 20.7 w F51 – Pan-STARRS 1, Haleakala MPS 806683
2017 07 29.47298 21 44 59.827 -18 14 46.31 20.6 w F51 – Pan-STARRS 1, Haleakala MPS 808020
2017 07 29.48401 21 44 59.332 -18 14 51.16 20.6 w F51 – Pan-STARRS 1, Haleakala MPS 808020
2017 07 29.49503 21 44 58.844 -18 14 55.83 20.6 w F51 – Pan-STARRS 1, Haleakala MPS 808020
2017 07 29.50604 21 44 58.353 -18 15 00.56 20.6 w F51 – Pan-STARRS 1, Haleakala MPS 808020
2017 08 18.39804 21 29 00.987 -20 34 21.47 20.4 w F51 – Pan-STARRS 1, Haleakala MPS 810414
2017 08 18.40800 21 29 00.470 -20 34 25.22 20.5 w F51 – Pan-STARRS 1, Haleakala MPS 810414
2017 08 18.41796 21 28 59.952 -20 34 29.15 20.4 w F51 – Pan-STARRS 1, Haleakala MPS 810414
2017 08 18.42796 21 28 59.424 -20 34 32.99 20.4 w F51 – Pan-STARRS 1, Haleakala MPS 810414
2017 09 15.31923 21 11 06.693 -22 37 25.15 21.0 w F51 – Pan-STARRS 1, Haleakala MPS 815726
2017 09 15.33026 21 11 06.431 -22 37 26.54 21.1 w F51 – Pan-STARRS 1, Haleakala MPS 815726
2017 09 15.34126 21 11 06.184 -22 37 27.91 21.1 w F51 – Pan-STARRS 1, Haleakala MPS 815726
2017 09 15.35226 21 11 05.935 -22 37 29.49 21.1 w F51 – Pan-STARRS 1, Haleakala MPS 815726
2018 12 13.35561 05 05 43.83 +16 05 29.4 20.8 G G96 – Mt. Lemmon Survey MPS 967207
2018 12 13.36068 05 05 43.57 +16 05 30.3 20.6 G G96 – Mt. Lemmon Survey MPS 967207
2018 12 13.36574 05 05 43.24 +16 05 30.6 20.6 G G96 – Mt. Lemmon Survey MPS 967207
2018 12 13.37080 05 05 42.97 +16 05 31.2 21.1 G G96 – Mt. Lemmon Survey MPS 967207
2018 12 14.63800 05 04 28.35 +16 07 03.0 20.8 R D29 – Purple Mountain Observatory, XuYi Station MPS 942466
2018 12 14.65126 05 04 27.49 +16 07 02.3 19.4 R D29 – Purple Mountain Observatory, XuYi Station MPS 942466
2019 01 06.42461 04 45 42.033 +16 49 37.91 21.1 w F51 – Pan-STARRS 1, Haleakala MPS 967207
2019 01 06.43740 04 45 41.549 +16 49 39.81 21.3 w F51 – Pan-STARRS 1, Haleakala MPS 967207
2019 01 06.45016 04 45 41.090 +16 49 41.63 21.1 w F51 – Pan-STARRS 1, Haleakala MPS 967207
2019 01 06.46291 04 45 40.604 +16 49 43.51 21.2 w F51 – Pan-STARRS 1, Haleakala MPS 967207
2020 02 15.45814 12 09 23.50 +08 15 09.0 21.5 G G96 – Mt. Lemmon Survey MPS 1163893
2020 02 15.47359 12 09 22.99 +08 15 15.9 22.0 G G96 – Mt. Lemmon Survey MPS 1163893
2020 03 16.25438 11 49 07.48 +11 42 13.2 20.7 G G96 – Mt. Lemmon Survey MPS 1172153
2020 03 16.26020 11 49 07.17 +11 42 15.3 21.2 G G96 – Mt. Lemmon Survey MPS 1172153
2020 03 16.26604 11 49 06.87 +11 42 17.6 21.0 G G96 – Mt. Lemmon Survey MPS 1172153
2020 03 16.27188 11 49 06.58 +11 42 19.6 20.9 G G96 – Mt. Lemmon Survey MPS 1172153
